OKEAN-0
1 25860U 99039A 12257.90141701 .00000607 00000-0 99276-4 0 7348
2 25860 097.9472 218.7839 0001172 034.8559 325.2715 14.74298022707642
NOAA-16
1 26536U 00055A 12256.71542925 -.00000159 00000-0 -60861-4 0 08882
2 26536 099.0860 300.1559 0010251 193.5708 166.5181 14.12777962617391
NOAA-17
1 27453U 02032A 12256.75488909 .00000103 00000-0 62046-4 0 08348
2 27453 098.3323 279.3507 0010685 259.4092 100.5870 14.24480326531223
NOAA-18
1 28654U 05018A 12256.74029448 .00000247 00000-0 16060-3 0 03165
2 28654 099.0552 215.5990 0013449 269.9177 090.0446 14.11697558376916
NOAA-19
1 33591U 09005A 12256.76792008 .00000032 00000-0 41959-4 0 05050
2 33591 098.8677 195.4920 0014570 130.3334 229.9137 14.11382424185368
HUBBLE
1 20580U 90037B 12257.19433996 .00001792 00000-0 11840-3 0 699
2 20580 028.4704 287.5150 0003044 270.3566 089.6521 15.02776566 27982
ISS
1 25544U 98067A 12257.82977436 .00001057 00000-0 26131-4 0 2941
2 25544 051.6423 040.6026 0015298 067.3440 067.8785 15.50570216791796
CO-58
1 28895U 05043F 12257.58725851 .00000498 00000-0 11114-3 0 2751
2 28895 097.9023 119.9199 0016590 231.1798 128.7929 14.60740140366566
FALCON
1 30776U 07006E 12256.92273192 .00004322 00000-0 27644-3 0 04382
2 30776 035.4320 100.7235 0001643 352.5781 007.4911 15.08171905303505
MAST
1 31126U 07012K 12257.57060482 .00000236 00000-0 62806-4 0 5568
2 31126 097.8759 263.5117 0093116 194.6648 165.1841 14.54249963287115
CAPE1
1 31130U 07012P 12257.54196351 .00000453 00000-0 11292-3 0 5669
2 31130 097.8846 259.8225 0100778 208.3130 151.2551 14.53060567286604
COMPASS
1 32787U 08021E 12257.65840782 .00001307 00000-0 16171-3 0 4080
2 32787 097.7939 317.0120 0016098 128.1199 232.1470 14.84319492236939
AAUSAT2
1 32788U 08021F 12257.67551030 .00001931 00000-0 23406-3 0 4002
2 32788 097.7939 317.4609 0015883 128.3148 231.9494 14.84671053236963
DO-64
1 32789U 08021G 12257.69528608 .00002735 00000-0 31555-3 0 4164
2 32789 097.8054 319.8540 0015332 124.6480 235.6114 14.86383949237024
CO-66
1 32791U 08021J 12257.81930252 .00001365 00000-0 17118-3 0 3978
2 32791 097.7894 316.8353 0016857 128.6979 231.5673 14.83681916236887
RS-30
1 32953U 08025A 12257.66581326 .00000010 00000-0 00000 0 0 1375
2 32953 082.4985 240.1107 0020063 112.2549 248.0659 12.43027491195552
PHARMSAT
1 35002U 09028B 12226.86484473 .07728342 73476-5 57159-3 0 789
2 35002 040.4341 050.6671 0012079 300.9773 059.0492 16.39309245183554
METEOR-M
1 35865U 09049A 12257.74489430 -.00000003 00000-0 18120-4 0 7746
2 35865 098.6451 310.3679 0002616 137.2531 222.8849 14.21869055155184
RS-38
1 35869U 09049E 12257.75274802 .00000033 00000-0 34407-4 0 7654
2 35869 098.6405 310.3561 0004709 145.5782 214.5700 14.22086478155200
JUGNU
1 37839U 11058B 12256.93686288 .00000620 00000-0 19019-3 0 02276
2 37839 019.9597 186.6331 0019577 109.8182 250.4331 14.12080607047668
SRMSAT
1 37841U 11058D 12256.19097637 .00000264 00000-0 00000-0 0 02283
2 37841 019.9698 197.7329 0011639 066.8198 293.3459 14.10160012047498
RAX-2
1 37853U 11061D 12256.91860898 .00005771 00000-0 45634-3 0 02932
2 37853 101.7074 337.0625 0244558 100.7766 262.0992 14.80737686047381
AUBIESAT
1 37854U 11061E 12256.91663524 .00005775 00000-0 44785-3 0 02918
2 37854 101.7128 337.4275 0246036 100.0961 262.7948 14.81189685047378
HRBE
1 37855U 11061F 12256.93977703 .00006009 00000-0 46815-3 0 02870
2 37855 101.7102 337.3866 0245978 100.1602 262.7397 14.81006242047378
RS-39
1 38051U 11062C 12257.79386194 .00008236 00000-0 33111-3 0 6988
2 38051 051.6340 097.1826 0012259 358.0732 111.7738 15.25703019 35490
E-STAR
1 38079U 12006C 12257.72810913 .00036752 00000-0 89938-3 0 5016
2 38079 069.4793 112.5268 0717640 135.8730 230.1988 14.20490874 30131
GOLIAT
1 38085U 12006J 12257.71346421 .00036476 00000-0 88659-3 0 4718
2 38085 069.4846 113.1469 0723537 136.2709 229.8075 14.19377063 30112
HORYU-2
1 38340U 12025D 12256.83470936 .00001221 00000-0 21104-3 0 1432
2 38340 098.1799 196.7879 0013976 054.4372 305.8148 14.70163300 17351
RS-40
1 38736U 12041D 12256.66313645 .00000010 00000-0 00000-0 0 00526
2 38736 082.4823 328.1654 0018150 210.0773 149.9268 12.42646472005776
PROITERES
1 38756U 12047B 12257.77251113 .00000387 00000-0 67262-4 0 252
2 38756 098.2855 323.3402 0011377 265.6187 094.3689 14.73869786 670
